THORAD AGENA D DEB, 42498

Orbit data source: Space-Track

THORAD AGENA D DEB, 42498 is space debris in SSO originally from a launch on Wed, 08 Apr 1970 UTC launched from the Air Force Western Test Range (AFWTR). Debris objects in space refer to the collection of defunct objects orbiting the Earth. Examples of debris include non-operational satellites, rocket bodies, and fragments generated from explosions, collisions, or faulty payload assembly.

Loading next visibility...
Identifier
42498, 1970-025RC
Orbit
SSO
Country
Flag of USUS
Related business
Manufacturer
Unknown
Mission
Spacecraft
Bus & Motor
Unknown
Mass
Unknown
Launch date (UTC)
1970-04-08 (55 years ago)
Launch vehicle
Unknown
Launch site
Air Force Western Test Range (AFWTR)
Object type
Payload
Rocket body
Debris
Shape & HBR
Unknown
Radar Cross Section
Small (<0.1 m²)

Expand to show TLE details & history
Last TLE update: 2 weeks ago

TLE from 2 weeks ago
0 THORAD AGENA D DEB
1 42498U 70025RC  25244.29651303  .00001399  00000-0  27116-2 0  9998
2 42498 100.5440 275.1188 0172713 247.4362 110.8403 13.33262396552382
Epoch: 2025-09-01T07:06Z
TLE epoch observation values (Epoch: 2025-09-01T07:06:58.725Z)
Latitude
-0.00009°
Longitude
-172.33001°
Altitude
1,185.325 km
Speed
7.238 km/s
True Right ascension
18h 20m 28s
True Declination
0° 00' 00"
Sunlit
Object was in daylight at epoch
Visualization orbit readout
Latitude
Unknown
Longitude
Unknown
Altitude
Unknown
Speed
Unknown
Apparent Right ascension
Unknown
Apparent Declination
Unknown
Sunlit
N/A
Visualization observer readout
Local Sidereal Time
02:22:55
Azimuth
Unknown
Elevation
Unknown
Doppler factor
Unknown
Orbital elements
Apogee altitude
1,261.558 km
Perigee altitude
1,002.143 km
Semi-major axis
7,509.987 km
Eccentricity
0.01727
Inclination
100.544°
RAAN
275.1188°
Arg. of periapsis
247.4362°
True anomaly
112.67554°
Mean anomaly
110.8403°
Eccentric anomaly
111.75936°
Mean motion
3.33491 °/min
Orbital period
107.95 mins
BSTAR
0.0027116
Loading maneuver chart data...
Computing Atmospheric mass density...

Documentation

Showing up to 5 results
|